[[{"header":{"parameterUnit":"m.s-1","parameterCategory":1,"la1":30.2991,"la2":30.254,"lo1":-89.0895,"lo2":-89.0444,"dy":0.0017,"dx":0.0017,"nx":28,"ny":28,"refTime":"2023-08-02T09:00:00:Z","depth":0,"parameterNumber":2,"parameterNumberName":"U-component_of_WINDS"},"data":[0,0,0,0,0,0,0,0,0,0,0,0,0,0,0,0,0,0,0,0,0,0,0,0,0,0,0,0,0,0,0,0,0,0,0,0,0,0,0,0,0,0,0,0,0,0,0,0,0,0,0,0,0,0,0,0,0,0,2.5902,2.5902,0,2.5939,2.5939,2.5939,2.5894,2.5893,2.5891,2.589,2.5927,2.593,2.5932,0,0,0,0,0,0,0,0,0,0,0,0,0,2.579,2.5792,2.5902,2.5902,2.5903,2.5939,2.5939,2.594,2.5895,2.5893,2.5891,2.5889,2.5926,2.5929,2.5932,0,0,0,0,0,0,0,0,0,0,0,0,0,2.5834,2.5793,2.5901,2.5884,2.5883,2.5938,2.5939,2.594,2.5895,2.5893,2.589,2.5888,2.5925,2.5929,2.5933,2.6006,0,0,2.5944,2.5946,0,0,0,0,0,0,0,0,2.5831,2.5838,2.5887,2.5886,2.5885,2.5909,2.5913,2.5962,2.5896,2.5891,2.5889,2.5887,2.5923,2.5927,2.5939,2.6008,2.601,2.5945,2.5947,2.5949,2.595,0,0,0,0,0,0,0,2.5828,2.5836,2.5916,2.5887,2.5886,2.5874,2.5878,2.5922,2.592,2.5891,2.5888,2.5893,2.5922,2.5936,2.594,2.601,2.5945,2.5948,2.595,2.5952,2.6137,2.6139,0,0,0,0,0,0,2.5827,2.5834,2.5915,2.5917,2.5851,2.5878,2.5882,2.5904,2.592,2.592,2.5895,2.5891,2.5931,2.5936,2.5941,2.6025,2.5949,2.5952,2.5954,2.6134,2.6137,2.614,0,0,0,0,0,0,2.5825,2.5835,2.5913,2.5875,2.5884,2.5883,2.5908,2.5906,2.592,2.5923,2.5922,2.5909,2.5929,2.5936,2.5989,2.6026,2.5954,2.5957,2.6131,2.6135,2.6139,2.6196,0,0,0,0,0,0,2.5822,2.5835,2.5863,2.5876,2.5886,2.5962,2.591,2.5908,2.5926,2.5921,2.5936,2.5936,2.5927,2.5984,2.5993,2.603,2.596,2.6128,2.6133,2.6138,2.6191,2.6201,2.621,0,0,0,0,0,2.5818,2.5879,2.5865,2.5875,2.5922,2.5964,2.597,2.5959,2.593,2.5957,2.5959,2.5936,2.6021,2.599,2.6,2.6038,2.6125,2.6131,2.6137,2.6186,2.6199,2.621,0,0,0,0,0,0,2.5871,2.588,2.5865,2.5931,2.5947,2.5957,2.5992,2.5973,2.5998,2.5992,2.5977,2.5981,2.6037,2.6044,2.6009,2.6108,2.6068,2.6076,2.6102,2.6114,2.6124,2.612,2.5964,0,0,0,0,0,2.589,2.5925,2.5931,2.5988,2.5997,2.5993,2.6011,2.6001,2.6017,2.6024,2.6029,2.6045,2.6075,2.6095,2.6124,2.6192,2.6193,2.6223,2.6233,2.6241,2.6247,2.628,2.6293,2.616,2.6159,2.6159,0,0,2.5931,2.594,2.5963,2.5999,2.601,2.6045,2.5999,2.6039,2.6063,2.603,2.608,2.6085,2.6101,2.6162,2.6189,2.6168,2.6284,2.6248,2.6255,2.6257,2.6288,2.63,2.6311,2.6164,2.6163,2.6162,0,0,2.6021,2.6033,2.608,2.6092,2.6109,2.6106,2.6117,2.6129,2.613,2.6181,2.6155,2.6184,2.6237,2.6249,2.6262,2.6354,2.6333,2.6364,2.6415,2.6447,2.6457,2.6467,2.6497,2.6508,2.6371,2.6371,2.6371,0,2.6069,2.612,2.6107,2.6147,2.6163,2.6133,2.618,2.6192,2.6218,2.6229,2.6206,2.6269,2.6279,2.634,2.6362,2.6375,2.6386,2.6361,2.6457,2.6466,2.6475,2.6503,2.6514,2.6375,2.6374,2.6374,2.6374,0,2.6176,2.6212,2.6248,2.6272,2.6292,2.6336,2.6328,2.635,2.6337,2.6336,2.6386,2.6396,2.6424,2.6438,2.6427,2.6497,2.6483,2.646,2.6418,2.6491,2.6517,2.6528,2.638,2.6378,2.6377,2.6377,0,0,2.6301,2.6316,2.6329,2.6338,2.6354,2.6381,2.6422,2.6449,2.6466,2.6485,2.6517,2.6562,2.6538,2.6553,2.6543,2.6572,2.664,2.6544,2.6544,2.6559,2.6714,2.673,2.6743,2.6627,2.6629,2.6631,2.6712,0,2.6389,2.6459,2.6448,2.6516,2.6547,2.6518,2.6554,2.6567,2.6566,2.6592,2.6591,2.6622,2.6591,2.6599,2.6626,2.6626,2.6671,2.6621,2.6655,2.6656,2.6649,2.6757,2.6775,2.6851,2.6722,2.6724,2.6725,0,2.6501,2.6521,2.6592,2.66,2.6613,2.6645,2.6667,2.6693,2.6706,2.6703,2.6719,2.6702,2.6742,2.6701,2.6754,2.672,2.6733,2.6735,2.6738,2.6739,2.6693,2.6758,2.6876,2.6886,2.6742,2.6741,2.6739,0,2.658,2.6627,2.6674,2.6683,2.6694,2.6717,2.6723,2.6733,2.6749,2.6769,2.6778,2.6803,2.6815,2.6834,2.6824,2.6796,2.6877,2.6837,2.6874,2.6874,2.6891,2.6889,2.7009,2.6904,2.6904,2.6904,2.6904,0,2.6678,2.6722,2.6709,2.6738,2.6785,2.6771,2.6818,2.6821,2.683,2.6858,2.6836,2.6862,2.6848,2.6874,2.6867,2.6909,2.6916,2.6914,2.6911,2.6914,2.6914,2.6921,2.6914,2.6907,2.6906,2.6906,2.6905,0,2.6774,2.6768,2.6817,2.6823,2.6826,2.686,2.6865,2.6891,2.6888,2.6923,2.6931,2.6927,2.6955,2.6947,2.6978,2.6973,2.7026,2.7018,2.7022,2.7018,2.7055,2.7051,2.7181,2.7196,2.7084,2.7086,2.7086,0,2.6836,2.6869,2.6877,2.6894,2.6901,2.6929,2.6944,2.6931,2.6948,2.6964,2.6988,2.7014,2.7034,2.708,2.7079,2.7102,2.7092,2.7137,2.7096,2.7097,2.7089,2.7086,2.7088,2.7144,2.7145,2.7146,2.7147,0,2.6945,2.6939,2.6962,2.6984,2.7002,2.7019,2.7033,2.7048,2.7036,2.7056,2.7084,2.7099,2.713,2.7155,2.7176,2.7181,2.7161,2.716,2.7169,2.7172,2.7171,2.7169,2.7041,2.7157,2.7156,2.7155,2.7155,2.7154,2.7023,2.705,2.7059,2.7085,2.7094,2.7107,2.7131,2.713,2.7153,2.7177,2.7168,2.7199,2.7209,2.7234,2.7242,2.7266,2.7249,2.7263,2.7266,2.7269,2.7272,2.717,2.727,2.727,2.7269,2.7269,2.7269,0,2.7128,2.7132,2.7156,2.7176,2.7195,2.7175,2.719,2.7207,2.7235,2.7246,2.7265,2.7296,2.732,2.732,2.7342,2.7361,2.7352,2.7367,2.7364,2.7365,2.7288,2.7276,2.7373,2.7373,2.7373,2.7373,2.7373,2.7373,2.7185,2.7227,2.7222,2.7268,2.7272,2.7302,2.7311,2.7322,2.733,2.7365,2.7385,2.7385,2.7391,2.7413,2.7433,2.7433,2.744,2.7458,2.7454,2.7381,2.7371,2.7361,2.7349,2.746,2.7461,2.7528,2.7529,2.7529]},{"header":{"parameterUnit":"m.s-1","parameterCategory":1,"la1":30.2991,"la2":30.254,"lo1":-89.0895,"lo2":-89.0444,"dy":0.0017,"dx":0.0017,"nx":28,"ny":28,"refTime":"2023-08-02T09:00:00:Z","depth":0,"parameterNumber":3,"parameterNumberName":"V-component_of_WINDS"},"data":[0,0,0,0,0,0,0,0,0,0,0,0,0,0,0,0,0,0,0,0,0,0,0,0,0,0,0,0,0,0,0,0,0,0,0,0,0,0,0,0,0,0,0,0,0,0,0,0,0,0,0,0,0,0,0,0,0,0,4.4845,4.4846,0,4.4929,4.493,4.4931,4.4889,4.4887,4.4885,4.4883,4.4961,4.4965,4.4969,0,0,0,0,0,0,0,0,0,0,0,0,0,4.4642,4.4646,4.4845,4.4846,4.4848,4.4929,4.493,4.4931,4.489,4.4887,4.4884,4.4882,4.496,4.4965,4.497,0,0,0,0,0,0,0,0,0,0,0,0,0,4.4728,4.4648,4.4845,4.4837,4.4837,4.4928,4.493,4.4931,4.489,4.4887,4.4884,4.4881,4.4958,4.4964,4.497,4.5072,0,0,4.4989,4.4992,0,0,0,0,0,0,0,0,4.4724,4.4736,4.4837,4.4838,4.4838,4.4896,4.4887,4.4978,4.4891,4.487,4.4883,4.4879,4.4941,4.4949,4.4971,4.5076,4.5079,4.4989,4.4993,4.4996,4.4998,0,0,0,0,0,0,0,4.4718,4.4732,4.4878,4.4839,4.4839,4.4826,4.4835,4.4904,4.4922,4.4871,4.4869,4.4879,4.4941,4.4965,4.4973,4.508,4.4989,4.4995,4.4999,4.5001,4.527,4.5273,0,0,0,0,0,0,4.4713,4.4727,4.4875,4.4881,4.4772,4.4833,4.4842,4.488,4.4922,4.4925,4.4882,4.4877,4.4957,4.4966,4.4975,4.5096,4.4996,4.5002,4.5005,4.5266,4.527,4.5274,0,0,0,0,0,0,4.4709,4.4727,4.4872,4.4803,4.4821,4.484,4.4882,4.4883,4.4908,4.493,4.4932,4.4904,4.4954,4.4967,4.5048,4.5098,4.5004,4.501,4.5262,4.5268,4.5272,4.5338,0,0,0,0,0,0,4.4703,4.4726,4.4767,4.4805,4.4825,4.4946,4.4885,4.4887,4.4919,4.4914,4.4951,4.4954,4.4953,4.5039,4.5054,4.5104,4.5015,4.5258,4.5265,4.5271,4.5332,4.5345,4.5356,0,0,0,0,0,4.4696,4.4781,4.4769,4.4787,4.4877,4.4949,4.4961,4.4959,4.4924,4.4963,4.4977,4.4953,4.509,4.5048,4.5065,4.5117,4.5255,4.5263,4.527,4.5326,4.5342,4.5356,0,0,0,0,0,0,4.4746,4.4786,4.4773,4.4873,4.4909,4.4942,4.4993,4.4977,4.5022,4.5014,4.5008,4.5017,4.5101,4.5117,4.507,4.5217,4.5166,4.5178,4.5203,4.5219,4.5231,4.5225,4.502,0,0,0,0,0,4.4769,4.4828,4.4858,4.4943,4.4962,4.4974,4.5006,4.5002,4.5037,4.5051,4.5071,4.5104,4.5154,4.5188,4.5235,4.5334,4.534,4.5378,4.539,4.54,4.541,4.546,4.5477,4.53,4.53,4.53,0,0,4.4817,4.4845,4.4882,4.4954,4.4981,4.5038,4.4987,4.5051,4.5092,4.506,4.5139,4.5154,4.519,4.528,4.5321,4.5296,4.546,4.541,4.5418,4.5422,4.547,4.5487,4.5502,4.5305,4.5304,4.5303,0,0,4.4932,4.4961,4.5034,4.5062,4.5104,4.5112,4.513,4.5166,4.5176,4.5255,4.5231,4.5279,4.5367,4.5393,4.5418,4.5542,4.552,4.5557,4.5621,4.5671,4.5685,4.5697,4.5739,4.5754,4.5567,4.5567,4.5567,0,4.4985,4.5074,4.5073,4.5139,4.5169,4.5145,4.5217,4.5243,4.5298,4.5318,4.5291,4.5399,4.5422,4.5516,4.5546,4.5568,4.5585,4.5553,4.5683,4.5696,4.5707,4.5747,4.5763,4.5571,4.5571,4.557,4.557,0,4.5135,4.5196,4.525,4.5305,4.5342,4.541,4.5417,4.5454,4.5447,4.5456,4.5535,4.5562,4.5614,4.5636,4.5629,4.5729,4.5712,4.5684,4.5633,4.5728,4.5765,4.5781,4.5577,4.5576,4.5574,4.5573,0,0,4.5284,4.5339,4.5358,4.5382,4.5426,4.5472,4.5537,4.559,4.562,4.5658,4.5711,4.5785,4.5759,4.5787,4.5782,4.5826,4.592,4.5792,4.5793,4.5813,4.6029,4.6048,4.6066,4.5906,4.5909,4.5911,4.6025,0,4.5401,4.552,4.552,4.5628,4.5683,4.5659,4.5716,4.5748,4.5758,4.5804,4.5814,4.5866,4.5829,4.5845,4.5888,4.5899,4.5962,4.5891,4.5952,4.5955,4.5943,4.6086,4.6108,4.6214,4.604,4.6042,4.6044,0,4.5554,4.5599,4.5712,4.5747,4.577,4.5821,4.5868,4.5913,4.5947,4.5951,4.5982,4.597,4.6034,4.5982,4.6068,4.602,4.6045,4.6054,4.6058,4.6062,4.6004,4.6093,4.6248,4.6263,4.6067,4.6066,4.6064,0,4.5649,4.5737,4.5816,4.5838,4.588,4.5916,4.5935,4.5966,4.5997,4.6037,4.6057,4.6103,4.6128,4.6163,4.6162,4.6125,4.6248,4.6197,4.6251,4.6251,4.6277,4.6275,4.6437,4.6296,4.6296,4.6296,4.6295,0,4.5779,4.5849,4.5859,4.5908,4.5984,4.5983,4.6057,4.6073,4.61,4.6149,4.6131,4.6176,4.6174,4.6219,4.6219,4.6288,4.63,4.6303,4.6302,4.6304,4.6303,4.6319,4.6311,4.63,4.6299,4.6298,4.6297,0,4.5898,4.5908,4.5992,4.6026,4.6036,4.609,4.6117,4.6162,4.617,4.6232,4.6246,4.6258,4.631,4.6314,4.6374,4.6373,4.6457,4.6449,4.6447,4.6444,4.6498,4.6492,4.6674,4.6696,4.6542,4.6544,4.6545,0,4.5979,4.6033,4.6072,4.6105,4.6126,4.6178,4.621,4.621,4.6243,4.6285,4.6323,4.6374,4.6414,4.6498,4.6511,4.6555,4.6547,4.6607,4.6553,4.6553,4.6545,4.6541,4.6546,4.6617,4.6619,4.662,4.6621,0,4.6122,4.6125,4.6172,4.6222,4.626,4.6298,4.6334,4.636,4.6364,4.6402,4.6456,4.6487,4.6549,4.6598,4.6642,4.6657,4.6639,4.6639,4.6653,4.6655,4.6651,4.6652,4.6473,4.6634,4.6633,4.6632,4.6631,4.6631,4.6224,4.6269,4.6304,4.6357,4.6384,4.6417,4.646,4.6474,4.652,4.6571,4.6568,4.6627,4.6657,4.6714,4.6733,4.6777,4.6756,4.6778,4.6783,4.6788,4.6793,4.6645,4.6785,4.6785,4.6785,4.6784,4.6784,0,4.6364,4.6385,4.6434,4.6485,4.6526,4.6508,4.6545,4.658,4.6633,4.6664,4.6704,4.6764,4.6812,4.6829,4.6874,4.6906,4.6899,4.6918,4.6914,4.6918,4.681,4.6792,4.6923,4.6923,4.6923,4.6923,4.6923,4.6923,4.6441,4.6517,4.6523,4.661,4.663,4.669,4.6712,4.6742,4.6766,4.6836,4.6876,4.6887,4.6911,4.6958,4.7,4.7003,4.7019,4.7042,4.7041,4.694,4.6926,4.6912,4.6896,4.7046,4.7046,4.7146,4.7147,4.7147]}]]